Yao current weather conditions

sailwx.info

Wind from 330 at 8 knots

Air temperature 7.0° C
Visibility: greater than 5.4 NM
Dewpoint 4.0° C
Present weather: Light rain showers.

Last reported at 2015-Mar-01 09:00 UTC.
Time now 2015-Mar-01 11:02 UTC

Location: N 34°36' E 135°36'.
View on Google Maps.

See reports from other nearby stations

  
Tides and Currents Weather Stations Pressure Air Temp Water Temp Dewpoint Dewpoint Depression Visibility Wind Speed Wind Dir Waves Ship Positions
date/time (UTC)wind fromknots sea level pressurealtimeterstation pressurevisibilityair tempwater tempwave heightnotes
2015-Mar-01 09:00 330 8 5.4 7.0 Light rain showers.
2015-Mar-01 08:00 330 12 4.3 7.0 Light rain showers.
2015-Mar-01 07:00 300 10 2.7 9.0 Rain showers. Mist.
2015-Mar-01 06:22 340 8 3.210.0 Light rain showers. Mist.
2015-Mar-01 06:00 300 9 2.210.0 Rain showers. Mist.
2015-Mar-01 05:00 310 6 2.410.0 Rain showers. Mist.
2015-Mar-01 04:41 320 7 2.4 9.0 Light rain showers. Mist.
2015-Mar-01 04:00 320 5 5.4 9.0 Light rain showers.
2015-Mar-01 03:00 340 3 5.4 9.0 Light rain.
2015-Mar-01 02:00 340 3 5.4 9.0 Light rain.
2015-Mar-01 01:00 020 5 4.9 8.0 Light rain.
2015-Mar-01 00:00 030 4 4.3 8.0 Light rain.
2015-Feb-28 23:00 3.2 6.0 Light rain. Mist.
2015-Feb-28 10:00 100 2 9.0
2015-Feb-28 09:00 080 5 9.0
2015-Feb-28 08:00 350 5 10.0
2015-Feb-28 07:00 010 5 10.0
2015-Feb-28 06:00 010 3 10.0
2015-Feb-28 05:00 320 4 10.0
2015-Feb-28 04:00 330 5 5.4 8.0
2015-Feb-28 03:00 030 5 5.4 8.0
2015-Feb-28 02:00 010 6 5.4 7.0
2015-Feb-28 01:00 340 3 5.4 6.0
2015-Feb-28 00:00 5.4 5.0
2015-Feb-27 23:00 5.4 4.0